Twin Bridges, CA

4:11 AM PDT on September 28, 2016 (GMT -0700)
Lake Tahoe

Weather History for KTVL - March, 2014

Change the Weather History Date:

Sunday, March 30, 2014

  Actual Average Record
Temperature  
Mean Temperature 31 °F 38 °F  
Max Temperature 40 °F 51 °F 71 °F (2015)
Min Temperature 21 °F 24 °F 5 °F (1981)
Degree Days  
Heating Degree Days 34 28  
Month to date heating degree days 750 889  
Since 1 July heating degree days 5365 6126  
Cooling Degree Days 0 0  
Month to date cooling degree days 0 0  
Year to date cooling degree days 0 0  
Moisture  
Dew Point 24 °F    
Average Humidity 65    
Maximum Humidity 85    
Minimum Humidity 44    
Precipitation  
Precipitation 0.01 in - 1.49 in (1940)
Month to date precipitation 1.88  
Year to date precipitation 10.12  
Sea Level Pressure  
Sea Level Pressure 29.95 in    
Wind  
Wind Speed 5 mph (SSW)    
Max Wind Speed 16 mph    
Max Gust Speed 22 mph    
Visibility 7 miles    
Events Snow    
T = Trace of Precipitation, MM = Missing Value Source: NWS Daily Summary

Daily Weather History Graph

Daily Weather History Graph

Search for Another Location

Airport or City:

Trip Planner

Search our weather history database for the weather conditions in past years. The results will help you decide how hot, cold, wet, or windy it might be!

Date:

Astronomy

Mar. 30, 2014 Rise Set
Actual Time 6:47 AM PDT 7:21 PM PDT
Civil Twilight 6:20 AM PDT 7:48 PM PDT
Nautical Twilight 5:49 AM PDT 8:20 PM PDT
Astronomical Twilight 5:16 AM PDT 8:52 PM PDT
Moon 6:36 AM PDT (3/30) 7:39 PM PDT (3/30)
Length of Visible Light 13h 27m
Length of Day
12h 34m
New Moon, 0% of the Moon is Illuminated
Mar 30
New Moon
Apr 7
First Quarter
Apr 15
Full
Apr 22
Last Quarter
Apr 28
New

Hourly Weather History & Observations

Time (PDT) Temp. Windchill Dew Point Humidity Pressure Visibility Wind Dir Wind Speed Gust Speed Precip Events Conditions
12:01 AM 32.0 °F 27.5 °F 28.0 °F 85% 29.89 in 1.8 mi South 4.6 mph - 0.00 in Snow Light Snow
12:24 AM 32.0 °F 27.5 °F 28.0 °F 85% 29.90 in 1.0 mi SSW 4.6 mph - 0.02 in Snow Light Snow
12:32 AM 32.0 °F - 28.0 °F 85% 29.90 in 0.8 mi Calm Calm - 0.02 in Snow Light Snow
12:39 AM 32.0 °F - 28.0 °F 85% 29.90 in 0.8 mi Calm Calm - 0.03 in Snow Light Snow
12:53 AM 30.9 °F - 27.0 °F 85% 29.86 in 0.8 mi Calm Calm - 0.05 in Snow Light Snow
1:18 AM 30.9 °F - 27.0 °F 85% 29.89 in 2.0 mi Calm Calm - 0.02 in Snow Light Snow
1:25 AM 30.9 °F 26.2 °F 27.0 °F 85% 29.88 in 4.0 mi South 4.6 mph - 0.02 in Snow Light Snow
1:33 AM 30.9 °F 27.5 °F 27.0 °F 85% 29.89 in 5.0 mi SW 3.5 mph - 0.02 in Snow Light Snow
1:41 AM 30.9 °F 27.5 °F 26.1 °F 82% 29.88 in 3.0 mi SSW 3.5 mph - 0.02 in Snow Light Snow
1:53 AM 30.0 °F 22.4 °F 25.0 °F 82% 29.85 in 7.0 mi South 8.1 mph - 0.02 in Snow Light Snow
2:05 AM 30.9 °F 25.2 °F 26.1 °F 82% 29.88 in 10.0 mi SW 5.8 mph - 0.00 in   Mostly Cloudy
2:22 AM 30.9 °F 26.2 °F 26.1 °F 82% 29.88 in 6.0 mi SW 4.6 mph - 0.00 in Snow Light Snow
2:34 AM 30.9 °F 21.7 °F 21.9 °F 69% 29.88 in 9.0 mi SSW 11.5 mph - 0.00 in   Mostly Cloudy
2:53 AM 28.9 °F 22.8 °F 23.0 °F 78% 29.88 in 10.0 mi Variable 5.8 mph - 0.00 in   Mostly Cloudy
3:53 AM 25.0 °F 19.3 °F 18.0 °F 75% 29.90 in 10.0 mi SSW 4.6 mph - N/A   Scattered Clouds
4:53 AM 24.1 °F - 19.0 °F 81% 29.92 in 10.0 mi Calm Calm - N/A   Partly Cloudy
5:53 AM 27.0 °F 20.5 °F 19.9 °F 75% 29.93 in 10.0 mi SW 5.8 mph - N/A   Overcast
6:06 AM 27.0 °F 17.3 °F 19.9 °F 75% 29.92 in 2.5 mi South 10.4 mph - 0.00 in Snow Light Snow
6:09 AM 27.0 °F 18.0 °F 19.9 °F 75% 29.92 in 1.8 mi South 9.2 mph - 0.00 in Snow Light Snow
6:20 AM 26.1 °F 21.9 °F 21.0 °F 81% 29.93 in 3.0 mi South 3.5 mph - 0.00 in Snow Light Snow
6:30 AM 26.1 °F - 19.9 °F 78% 29.93 in 9.0 mi Calm Calm - 0.00 in   Overcast
6:37 AM 26.1 °F - 21.0 °F 81% 29.94 in 10.0 mi Calm Calm - 0.00 in   Overcast
6:53 AM 26.1 °F - 21.0 °F 81% 29.95 in 10.0 mi Calm Calm - 0.00 in   Overcast
7:53 AM 24.1 °F 17.0 °F 19.0 °F 81% 29.98 in 10.0 mi SSE 5.8 mph - N/A   Mostly Cloudy
8:53 AM 30.0 °F 24.1 °F 21.9 °F 72% 29.98 in 10.0 mi South 5.8 mph - N/A   Clear
9:53 AM 32.0 °F 24.2 °F 21.9 °F 66% 29.98 in 10.0 mi South 9.2 mph - N/A   Clear
10:53 AM 35.1 °F 29.3 °F 23.0 °F 61% 29.99 in 10.0 mi SSW 6.9 mph - N/A   Clear
11:53 AM 36.0 °F 30.3 °F 19.9 °F 52% 29.99 in 10.0 mi South 6.9 mph - N/A   Clear
12:53 PM 37.9 °F 32.7 °F 19.9 °F 48% 29.98 in 10.0 mi Variable 6.9 mph - N/A   Partly Cloudy
1:53 PM 37.9 °F 31.5 °F 21.9 °F 53% 30.00 in 10.0 mi SSW 9.2 mph 18.4 mph N/A   Mostly Cloudy
2:53 PM 39.0 °F 33.4 °F 19.9 °F 46% 30.00 in 10.0 mi SSW 8.1 mph - N/A   Partly Cloudy
3:53 PM 39.0 °F 31.4 °F 19.9 °F 46% 30.00 in 10.0 mi South 12.7 mph - N/A   Clear
4:53 PM 37.0 °F 31.0 °F 26.1 °F 65% 30.00 in 9.0 mi South 8.1 mph - N/A   Overcast
5:47 PM 37.4 °F 28.2 °F 28.4 °F 70% 30.00 in 4.0 mi South 16.1 mph - 0.00 in   Haze
5:48 PM 37.0 °F 27.7 °F 28.0 °F 70% 30.00 in 3.0 mi South 16.1 mph - 0.00 in Snow Light Snow
5:50 PM 36.0 °F 27.1 °F 28.9 °F 76% 30.00 in 1.8 mi South 13.8 mph 19.6 mph 0.00 in Snow Light Snow
6:05 PM 34.0 °F 29.8 °F 28.0 °F 79% 30.00 in 3.0 mi SSE 4.6 mph - 0.00 in Snow Light Snow
6:13 PM 34.0 °F 28.0 °F 27.0 °F 75% 29.99 in 9.0 mi South 6.9 mph - 0.00 in   Mostly Cloudy
6:53 PM 34.0 °F 26.6 °F 26.1 °F 73% 30.00 in 10.0 mi South 9.2 mph - 0.00 in   Overcast
7:13 PM 34.0 °F 28.0 °F 27.0 °F 75% 29.99 in 2.5 mi South 6.9 mph - 0.00 in Snow Light Snow
7:23 PM 33.1 °F 30.0 °F 26.1 °F 75% 30.00 in 5.0 mi South 3.5 mph - 0.00 in Snow Light Snow
7:33 PM 34.0 °F 29.8 °F 27.0 °F 75% 30.00 in 10.0 mi SSW 4.6 mph - 0.00 in   Overcast
7:40 PM 35.1 °F 26.9 °F 26.1 °F 70% 30.00 in 10.0 mi South 11.5 mph - 0.00 in   Mostly Cloudy
7:53 PM 34.0 °F 28.0 °F 24.1 °F 67% 30.03 in 10.0 mi SSW 6.9 mph - 0.00 in   Overcast
8:53 PM 33.1 °F 24.9 °F 26.1 °F 75% 30.02 in 9.0 mi South 10.4 mph - 0.00 in Snow Light Snow
9:53 PM 34.0 °F 26.6 °F 21.9 °F 61% 30.01 in 10.0 mi South 9.2 mph - 0.00 in   Overcast
10:53 PM 30.9 °F - 23.0 °F 72% 30.00 in 10.0 mi Calm Calm - N/A   Mostly Cloudy
11:53 PM 30.9 °F 27.5 °F 21.0 °F 67% 29.98 in 10.0 mi Variable 3.5 mph - N/A   Overcast